Vertical_Velocity
-3 -2 -2 -3 1 1 1 -0 -1 -1 -2 -1 -0 -0 -1 -0 0 0 0 0 -0 -2 -0 -1 -1 -0 -1 -1 -1 -0 -1 -0 -1 -0 -1 -0 -1 -1 -1 -1 -1 -1 -1
1 -3 0 -1 -0 -0 -1 1 0 -1 1 -2 -1 1 -1 -1 -0 1 -1 -0 0 0 -1 -1 -2 -2 -2 -1 0 -0 -0 -0 -1 -0 -0 -1 -1 -2 -1 -1 -1 -1 -2
2 -1 0 0 1 2 -0 1 2 -0 -0 -2 1 -1 -1 -0 -0 -0 1 0 -0 1 -0 0 -0 -1 -0 -1 -1 -0 -1 0 0 -1 -1 -1 -1 -1 -1 -2 -1 -2 -1
0 -2 3 1 1 1 1 0 0 -0 1 -1 -1 -1 -0 -1 1 -0 -1 0 1 -0 0 -0 -1 -0 -1 -1 -1 -1 -1 -1 -0 -1 -0 -1 -1 -2 -2 -2 -1 -1 -2
1 -4 0 1 3 0 2 2 1 1 1 -0 -0 -2 -1 -0 -0 -0 -1 -1 -0 -1 -1 -1 -1 -0 0 -0 -1 -1 -1 -1 -1 -1 -1 -1 -1 -1 -0 -1 -1 -1 -1
4 -1 3 2 0 4 1 2 1 1 1 -0 0 -1 -1 0 0 -1 -1 -1 -1 -1 -1 -0 -1 -2 -0 0 0 -0 -0 -0 -0 -0 0 -0 -1 -0 -0 0 -1 -1 -1
2 0 2 1 -1 1 3 1 2 1 0 1 -0 -1 -0 1 0 -0 -1 -1 -2 -1 -1 -1 -0 -0 -1 -0 0 -1 -0 -0 -0 -0 0 0 -1 -1 -1 -1 -0 0 -1
-4 3 5 1 1 -4 1 1 1 2 1 -1 -1 -1 1 2 2 1 0 0 -0 -1 -1 -0 -0 -1 -1 -1 -1 -1 -1 -1 -1 -0 -0 -0 -0 -0 -1 -1 -1 -1 -1
-2 5 13 2 3 -4 -2 2 2 -0 0 -0 0 -2 2 2 1 0 -1 -0 0 -0 -0 -0 -1 -1 -0 -1 -1 -1 -1 -1 -1 -1 -1 -1 -1 -1 -1 -2 -2 -1 -1
-10 -0 3 -2 3 -0 1 2 2 2 -1 1 2 -2 1 0 1 2 0 -0 0 -1 -1 -1 -0 0 -1 -1 -1 -1 -1 -0 -0 -1 -0 0 -0 -1 -1 -1 -1 -1 -0
-1 -8 -6 4 3 5 0 -0 1 -0 1 -1 1 -0 0 1 1 0 2 1 0 0 2 1 -0 -1 -1 -2 -1 -0 -1 -1 -2 -2 -1 -1 -0 0 -0 -0 -0 -1 -1
63 29 2 -5 1 2 -2 1 0 1 0 1 0 -2 -0 0 1 2 1 1 0 -0 0 0 0 -0 0 1 -1 -1 -2 -2 -1 1 0 -2 -2 -2 -1 -0 -1 -1 0
39 5 14 -3 2 -0 1 -2 1 1 0 2 -0 -0 1 2 -0 -0 0 -1 -1 -1 0 -0 1 0 -0 0 -1 -2 0 -1 -1 -1 -1 -0 0 -0 -0 1 0 -0 -0
1 31 -5 -16 -2 3 -2 -2 -1 -1 0 -0 -0 0 1 1 0 1 -1 1 1 1 -1 -0 0 1 -0 -0 -0 -0 -1 -0 -1 -0 -2 -1 -1 -1 -3 -1 -2 -1 -1
19 14 37 22 -6 5 -0 1 2 0 3 -0 -1 0 1 0 1 1 0 1 0 0 1 1 1 -0 -1 -0 -0 -0 0 0 1 -1 -0 -1 1 -0 -0 -0 -1 -2 1
14 18 29 12 5 40 2 5 3 1 1 2 -0 3 -1 1 2 1 2 -1 1 0 0 1 -0 -0 1 1 0 -0 -1 -1 0 2 0 1 1 -2 -1 -1 -0 -1 -0
17 -9 63 13 13 -1 13 6 1 -1 -1 3 -2 3 1 1 2 1 -0 0 1 1 1 -1 2 -0 0 0 -0 -1 1 -1 -1 0 1 0 1 1 0 1 0 1 0
14 3 30 -9 6 8 7 13 8 5 1 -3 -3 -1 1 2 2 2 -1 -1 -1 -0 -5 2 1 1 1 0 0 -1 0 -1 -0 -1 1 0 0 1 1 -1 2 -1 -1
11 2 4 5 -2 0 -5 0 2 -0 1 -2 -2 -2 -2 -4 1 0 3 3 1 -3 0 0 -3 0 2 2 1 1 -0 -0 -1 1 -1 1 -1 1 2 3 1 -0 2
-4 -7 1 9 11 -5 5 3 -3 -3 -5 -2 -2 1 2 2 -1 0 0 -2 3 2 1 -1 -1 0 2 2 1 -1 1 -2 1 1 0 -0 1 -1 1 3 -0 -1 -3
1 6 23 0 6 19 11 17 5 1 3 0 -1 1 0 -2 -1 2 -3 0 1 3 1 1 -1 2 2 -0 1 1 2 2 -0 -1 1 0 1 0 -1 -3 -0 -0 2
12 -4 -6 8 9 2 3 -4 -0 8 -1 -1 5 1 -2 3 1 2 0 1 -0 0 1 2 -3 1 1 0 3 1 3 -0 -2 -6 -1 0 -0 2 0 -1 1 -1 -2
-7 -2 6 6 0 3 13 7 11 19 3 13 6 4 8 6 1 1 2 -1 1 0 -1 10 15 6 4 1 2 1 -1 -1 6 -5 1 -2 1 -2 -1 0 -2 1 -1
11 9 -3 4 2 -3 8 20 9 -9 -2 3 8 6 4 9 6 13 1 -4 -3 0 3 -0 12 4 3 6 -6 19 5 11 14 6 4 8 4 4 -1 -5 0 -0 0
13 17 13 10 -1 3 4 -2 -1 12 14 4 7 8 17 11 5 13 -0 -5 1 -2 8 -1 5 1 22 5 1 2 4 6 3 1 4 2 2 0 3 -1 -1 -3 -2
7 7 6 15 10 11 15 -6 22 20 18 13 11 17 13 16 3 12 2 8 2 -4 20 -2 5 6 4 10 6 4 4 3 -0 -3 -0 -2 1 -1 3 5 -2 -1 1
Height
5853 5855 5856 5858 5861 5863 5865 5867 5868 5869 5870 5869 5869 5870 5871 5872 5873 5873 5873 5872 5872 5872 5872 5872 5872 5871 5871 5871 5872 5872 5872 5873 5873 5873 5873 5873 5873 5872 5872 5871 5869 5868 5867
5848 5851 5854 5856 5857 5860 5862 5865 5866 5867 5868 5868 5868 5869 5869 5870 5872 5872 5872 5872 5872 5871 5871 5871 5871 5871 5871 5871 5871 5872 5872 5872 5872 5873 5873 5872 5872 5872 5871 5871 5869 5868 5867
5841 5845 5849 5853 5855 5857 5859 5861 5863 5864 5866 5866 5866 5867 5868 5869 5870 5871 5872 5871 5872 5871 5871 5870 5870 5870 5870 5870 5871 5871 5871 5871 5872 5872 5872 5872 5872 5871 5871 5870 5869 5868 5867
5837 5840 5845 5848 5851 5853 5856 5858 5860 5861 5862 5864 5864 5865 5866 5868 5869 5870 5870 5870 5870 5870 5870 5869 5869 5869 5869 5869 5870 5870 5870 5871 5871 5871 5871 5871 5871 5870 5870 5869 5868 5867 5866
5831 5834 5839 5843 5846 5849 5851 5854 5856 5858 5859 5861 5862 5862 5864 5866 5868 5868 5868 5869 5869 5868 5868 5868 5868 5869 5868 5869 5869 5869 5870 5870 5870 5871 5871 5871 5870 5870 5869 5868 5867 5866 5866
5825 5828 5833 5836 5840 5844 5847 5850 5852 5854 5856 5857 5858 5860 5861 5864 5865 5866 5867 5867 5868 5868 5868 5867 5867 5868 5868 5868 5868 5868 5868 5869 5870 5870 5870 5870 5870 5869 5869 5868 5867 5866 5865
5815 5822 5827 5831 5834 5837 5841 5845 5848 5850 5852 5853 5854 5855 5858 5861 5862 5863 5864 5865 5865 5866 5867 5867 5866 5866 5866 5866 5866 5866 5867 5868 5868 5869 5869 5869 5868 5868 5867 5867 5866 5865 5864
5807 5814 5819 5823 5827 5831 5835 5839 5842 5846 5847 5849 5850 5851 5854 5857 5859 5860 5861 5862 5863 5863 5863 5864 5865 5864 5864 5864 5864 5865 5865 5866 5866 5867 5867 5867 5867 5866 5866 5865 5865 5864 5863
5798 5804 5808 5813 5819 5824 5828 5832 5836 5840 5842 5844 5846 5847 5851 5852 5854 5856 5858 5859 5860 5861 5861 5861 5862 5862 5862 5863 5863 5863 5863 5863 5864 5864 5864 5864 5864 5864 5864 5863 5862 5861 5860
5787 5794 5799 5805 5811 5816 5822 5825 5829 5833 5836 5839 5841 5843 5846 5848 5850 5852 5854 5855 5856 5858 5858 5859 5859 5859 5860 5860 5861 5860 5861 5861 5861 5861 5861 5861 5861 5861 5861 5860 5860 5859 5858
5779 5776 5785 5794 5802 5808 5812 5819 5822 5827 5831 5834 5837 5839 5842 5843 5846 5847 5849 5851 5853 5854 5855 5856 5857 5857 5857 5858 5858 5858 5858 5858 5858 5859 5859 5859 5858 5858 5858 5857 5857 5856 5855
5751 5761 5776 5783 5792 5800 5804 5811 5816 5820 5825 5829 5831 5833 5837 5839 5841 5843 5845 5846 5848 5850 5851 5852 5853 5854 5854 5855 5855 5856 5856 5856 5856 5856 5856 5856 5856 5855 5855 5854 5853 5853 5852
5745 5761 5765 5776 5783 5791 5797 5802 5808 5813 5817 5822 5825 5827 5832 5835 5836 5838 5840 5842 5844 5845 5846 5848 5849 5850 5851 5851 5852 5852 5852 5851 5851 5852 5852 5853 5852 5851 5850 5850 5849 5848 5847
5738 5750 5762 5765 5772 5782 5787 5793 5801 5806 5811 5816 5819 5822 5825 5829 5832 5834 5836 5837 5839 5841 5842 5843 5844 5846 5847 5847 5848 5848 5848 5848 5848 5848 5848 5848 5847 5846 5846 5846 5844 5843 5841
5737 5740 5753 5753 5762 5770 5777 5785 5792 5797 5803 5808 5813 5816 5820 5822 5826 5829 5831 5832 5834 5835 5836 5838 5838 5841 5842 5842 5842 5843 5843 5843 5843 5843 5843 5843 5842 5842 5842 5841 5840 5839 5837
5727 5738 5745 5744 5752 5753 5767 5778 5785 5790 5795 5801 5806 5809 5813 5817 5820 5822 5824 5826 5827 5830 5831 5832 5834 5835 5835 5837 5837 5837 5838 5839 5838 5838 5839 5839 5838 5837 5836 5836 5835 5834 5833
5720 5730 5735 5738 5737 5745 5756 5768 5776 5783 5787 5793 5798 5802 5807 5810 5812 5815 5818 5819 5821 5823 5825 5827 5828 5829 5829 5830 5831 5831 5831 5832 5833 5833 5833 5832 5832 5832 5831 5830 5829 5827 5827
5719 5726 5728 5728 5735 5741 5752 5759 5768 5773 5779 5784 5789 5794 5798 5802 5805 5808 5811 5813 5815 5817 5819 5821 5822 5823 5823 5825 5824 5825 5825 5825 5826 5826 5826 5826 5826 5825 5825 5824 5822 5820 5820
5709 5718 5723 5726 5733 5740 5744 5750 5759 5768 5773 5776 5781 5785 5789 5793 5797 5801 5804 5807 5810 5810 5813 5815 5816 5817 5817 5818 5818 5818 5819 5818 5819 5819 5819 5819 5817 5816 5816 5816 5816 5815 5813
5706 5712 5717 5724 5730 5734 5739 5743 5752 5759 5763 5769 5774 5778 5783 5787 5789 5794 5796 5800 5802 5805 5807 5808 5809 5810 5811 5811 5812 5812 5813 5810 5810 5811 5811 5810 5809 5808 5806 5806 5807 5807 5804
5699 5708 5713 5717 5725 5732 5735 5740 5746 5752 5757 5762 5766 5770 5775 5777 5781 5786 5787 5790 5796 5799 5801 5802 5802 5802 5803 5804 5806 5805 5804 5803 5802 5803 5802 5801 5801 5800 5800 5799 5799 5798 5797
5697 5706 5714 5718 5724 5730 5735 5739 5743 5746 5749 5753 5759 5762 5763 5769 5775 5777 5780 5785 5788 5792 5794 5794 5793 5795 5797 5797 5797 5796 5796 5794 5792 5793 5792 5792 5791 5791 5790 5790 5789 5788 5788
5698 5705 5711 5716 5720 5729 5732 5736 5740 5744 5750 5753 5756 5760 5760 5764 5766 5768 5772 5776 5779 5782 5786 5787 5786 5788 5789 5789 5788 5789 5788 5788 5787 5786 5786 5784 5784 5783 5781 5780 5779 5777 5777
5695 5702 5705 5710 5714 5722 5728 5734 5739 5744 5745 5748 5749 5751 5753 5757 5760 5762 5764 5767 5769 5772 5775 5778 5778 5781 5780 5779 5779 5780 5780 5780 5779 5778 5778 5777 5776 5775 5774 5773 5771 5770 5768
5690 5698 5703 5706 5712 5719 5724 5729 5734 5739 5742 5742 5744 5747 5749 5753 5755 5758 5759 5760 5761 5765 5768 5769 5770 5771 5771 5770 5769 5768 5769 5770 5769 5769 5769 5766 5766 5766 5766 5764 5762 5761 5760
5685 5693 5699 5704 5710 5716 5722 5725 5730 5736 5737 5739 5741 5743 5745 5749 5754 5753 5752 5753 5754 5756 5761 5762 5762 5761 5761 5760 5760 5760 5761 5760 5761 5762 5760 5758 5758 5755 5754 5753 5751 5749 5749